FW7205 Weather Reports


Display with metric or nautical units.
time (UTC)temp
F
wind
direction
speed
MPH
gust
MPH
rain 1hr
in
rain 24hr
in
rain mn
in
humidity
%
barometer
mb
20260509173116 81 0 0.0 0.0 0.00 0.00 0.00 83 1010.0
20260509171553 77 0 0.0 0.0 0.00 0.00 0.00 88 1010.3
20260509170112 77 0 0.0 0.0 0.00 0.00 0.00 89 1010.0
20260509164602 77 0 0.0 0.0 0.00 0.00 0.00 90 1010.2
20260509163053 76 0 0.0 0.0 0.00 0.00 0.00 90 1010.1
20260509161556 76 0 0.0 0.0 0.00 0.00 0.00 91 1010.1
20260509160059 76 0 0.0 0.0 0.00 0.00 0.00 91 1010.2
20260509154555 76 0 0.0 0.0 0.00 0.00 0.00 91 1010.2
20260509153054 76 0 0.0 1.0 0.00 0.00 0.00 91 1010.3
20260509151616 76 0 0.0 1.0 0.00 0.00 0.00 91 1010.2
20260509150055 75 0 0.0 5.0 0.00 0.00 0.00 92 1009.8
20260509144554 75 360 1.0 4.0 0.00 0.00 0.00 92 1009.1
20260509143106 76 360 0.0 4.0 0.00 0.00 0.00 93 1009.0
20260509141557 74 360 0.0 4.0 0.00 0.00 0.00 94 1009.0
20260509140057 74 208 0.0 2.0 0.00 0.00 0.00 94 1009.2
20260509134605 74 197 0.0 3.0 0.00 0.00 0.00 94 1009.3
20260509133104 73 0 0.0 1.0 0.00 0.00 0.00 94 1009.5
20260509131604 73 0 0.0 1.0 0.00 0.00 0.00 94 1009.5
20260509130128 73 0 0.0 1.0 0.00 0.00 0.00 94 1009.3
20260509124553 73 0 0.0 1.0 0.00 0.00 0.00 94 1009.3
20260509123120 73 0 0.0 0.0 0.00 0.00 0.00 93 1009.3
20260509121554 73 0 0.0 0.0 0.00 0.00 0.00 93 1009.6
20260509120054 73 0 0.0 0.0 0.00 0.00 0.00 93 1009.4
20260509114624 73 0 0.0 0.0 0.00 0.00 0.00 93 1009.4
20260509113108 73 0 0.0 1.0 0.00 0.00 0.00 93 1009.8
20260509111553 73 0 0.0 0.0 0.00 0.00 0.00 93 1009.3
20260509110100 73 0 0.0 0.0 0.00 0.00 0.00 93 1009.6
20260509104555 73 0 0.0 0.0 0.00 0.00 0.00 93 1009.5
20260509103104 73 0 0.0 0.0 0.00 0.00 0.00 93 1009.7
20260509101601 73 0 0.0 0.0 0.00 0.00 0.00 93 1009.9
20260509100054 73 0 0.0 0.0 0.00 0.00 0.00 93 1009.4
20260509094602 73 0 0.0 0.0 0.00 0.00 0.00 93 1008.9
20260509093058 73 0 0.0 0.0 0.00 0.00 0.00 93 1009.1
20260509091555 73 0 0.0 0.0 0.00 0.00 0.00 92 1008.7
20260509090057 73 0 0.0 0.0 0.00 0.00 0.00 92 1009.2
20260509084603 73 0 0.0 0.0 0.00 0.00 0.00 92 1009.5
20260509083053 73 0 0.0 0.0 0.00 0.00 0.00 92 1009.7
20260509081558 73 0 0.0 0.0 0.00 0.00 0.00 92 1009.6
20260509080058 73 0 0.0 0.0 0.00 0.00 0.00 92 1009.6
20260509074555 73 0 0.0 0.0 0.00 0.00 0.00 92 1009.3
20260509073052 73 0 0.0 0.0 0.00 0.00 0.00 92 1010.0
20260509071555 73 0 0.0 0.0 0.00 0.00 0.00 92 1009.8
20260509070056 73 0 0.0 0.0 0.00 0.00 0.00 92 1009.7
20260509064602 73 0 0.0 0.0 0.00 0.00 0.00 92 1009.5
20260509063056 73 205 0.0 2.0 0.00 0.00 0.00 92 1009.4
20260509061608 73 0 0.0 1.0 0.00 0.00 0.00 91 1009.7
20260509060058 73 185 0.0 2.0 0.00 0.00 0.00 91 1009.5
20260509054610 73 0 0.0 2.0 0.00 0.00 0.00 91 1009.4
20260509053105 73 360 0.0 3.0 0.00 0.00 0.00 91 1009.4
20260509051608 73 0 0.0 2.0 0.00 0.00 0.00 91 1009.3
20260509050100 73 0 0.0 2.0 0.00 0.00 0.00 90 1009.2
20260509044616 73 0 0.0 3.0 0.00 0.00 0.00 90 1009.1
20260509043058 74 84 0.0 4.0 0.00 0.00 0.00 89 1009.1
20260509041559 74 0 0.0 2.0 0.00 0.00 0.00 89 1009.1
20260509040056 74 0 0.0 2.0 0.00 0.00 0.00 88 1009.1
20260509034555 74 98 0.0 2.0 0.00 0.00 0.00 88 1009.2
20260509033056 74 0 0.0 3.0 0.00 0.00 0.00 88 1009.2
20260509031610 75 0 0.0 3.0 0.00 0.00 0.00 87 1008.9
20260509024553 75 0 0.0 0.0 0.00 0.00 0.00 87 1008.8
20260509023106 75 0 0.0 2.0 0.00 0.00 0.00 87 1008.6
20260509021554 75 0 0.0 1.0 0.00 0.00 0.00 86 1008.7
20260509020058 76 0 0.0 0.0 0.00 0.00 0.00 86 1008.5
20260509014553 76 0 0.0 2.0 0.00 0.00 0.00 85 1008.4
20260509013053 76 0 0.0 0.0 0.00 0.00 0.00 85 1008.5
20260509011601 76 0 0.0 0.0 0.00 0.00 0.00 85 1008.3
20260509010104 76 0 0.0 2.0 0.00 0.00 0.00 84 1008.2
20260509004608 77 360 0.0 2.0 0.00 0.00 0.00 84 1008.1
20260509003100 77 0 0.0 2.0 0.00 0.00 0.00 83 1008.0
20260509001553 77 0 0.0 2.0 0.00 0.00 0.00 83 1008.2
20260509000053 78 117 0.0 2.0 0.00 0.00 0.00 82 1008.2
20260508234556 78 0 0.0 2.0 0.00 0.00 0.00 82 1007.9
20260508233057 78 0 0.0 2.0 0.00 0.00 0.00 81 1007.9
20260508231558 78 0 0.0 3.0 0.00 0.00 0.00 82 1007.9
20260508230124 78 121 0.0 2.0 0.00 0.00 0.00 80 1008.1
20260508224602 79 0 0.0 1.0 0.00 0.00 0.00 79 1008.4
20260508223056 79 0 0.0 1.0 0.00 0.00 0.00 79 1008.3
20260508221557 79 0 0.0 1.0 0.00 0.00 0.00 79 1008.4
20260508220117 79 0 0.0 1.0 0.00 0.00 0.00 79 1008.4
20260508214556 79 0 0.0 2.0 0.00 0.00 0.00 79 1008.5
20260508213100 79 0 0.0 1.0 0.00 0.00 0.00 79 1008.7
20260508211558 79 0 0.0 2.0 0.00 0.00 0.00 77 1008.8
20260508210058 79 0 0.0 2.0 0.00 0.00 0.00 79 1008.8
20260508204605 78 0 0.0 2.0 0.00 0.00 0.00 79 1009.1
20260508203101 78 0 0.0 2.0 0.00 0.00 0.00 78 1009.1
20260508201557 78 0 0.0 1.0 0.00 0.00 0.00 80 1009.3
20260508200057 78 0 0.0 1.0 0.00 0.00 0.00 79 1009.5
20260508194555 78 0 0.0 2.0 0.00 0.00 0.00 78 1009.6
20260508193106 78 0 0.0 2.0 0.00 0.00 0.00 79 1010.1
20260508191555 76 0 0.0 2.0 0.00 0.00 0.00 80 1010.0
20260508190107 78 78 0.0 3.0 0.00 0.00 0.00 79 1010.2
20260508184558 77 0 0.0 3.0 0.00 0.00 0.00 80 1010.6
20260508183059 76 0 0.0 2.0 0.00 0.00 0.00 81 1010.7
20260508181607 74 0 0.0 2.0 0.00 0.00 0.00 81 1010.9
20260508180106 72 110 0.0 2.0 0.00 0.00 0.00 83 1011.3
20260508174612 71 0 0.0 1.0 0.00 0.00 0.00 84 1011.5